Tracking 28790 objects as of 19-Apr-2024
HD Live streaming from Space Station
objects crossing your sky now

SL-16 DEB

Track SL-16 DEB now!
10-day predictions


NORAD ID: 16392
Int'l Code: 1985-097F
Perigee: 842.1 km
Apogee: 1,137.8 km
Inclination: 71.0 °
Period: 104.8 minutes
Semi major axis: 7360 km
RCS: 0.0926 m2 (small)
Launch date: October 22, 1985
Source: Commonwealth of Independent States (former USSR) (CIS)
Launch site: TYURATAM MISSILE AND SPACE COMPLEX (TTMTR)

Note: This is SATELLITE DEBRIS
Your satellite tracking list
Your tracking list is empty




NASA's NSSDC Master Catalog

Two Line Element Set (TLE):
1 16392U 85097F   24108.98940611  .00000195  00000-0  21661-3 0  9997
2 16392  70.9695 313.4609 0200863 355.0729 156.2932 13.74683785929533
Source of the keplerian elements: AFSPC